CAPE
758 895 481 176 31 0 0 7 97 217 236 93 197 157 161 443 56 38 959 1205 1291 1461 1875 2106 2283 2298 1861 1829 1966 1977 1757 2030 2082 1990 2024 1955 1980 1685 1712 1499 1576 1820 1368 1469 1486 1310 1178 1069 519
692 429 236 383 1 0 0 39 0 12 52 193 229 332 346 440 858 872 1039 1372 1347 1525 1929 2025 2320 2342 2112 1977 2026 1975 1879 1888 1923 1936 1942 1990 1958 1905 1727 1484 1535 1601 1720 1693 1374 1412 1038 644 658
441 433 470 297 0 0 0 147 137 114 234 378 357 463 491 463 867 922 1190 1425 1410 1577 1859 1896 2302 2408 2358 2144 2105 2024 1934 2011 1914 1599 1880 1502 1443 1649 1666 1314 1245 1553 1439 1312 1670 1400 1060 652 1113
663 585 591 1 0 0 74 251 335 411 446 273 366 402 581 803 811 1016 1498 1383 1305 1516 1785 2161 2344 2463 2457 2298 2031 1761 2046 1649 1959 1968 1848 1952 1952 1435 1121 1178 1477 1464 1415 1701 1317 1181 1138 832 935
161 138 0 0 0 68 263 433 542 416 366 404 431 466 651 859 973 1276 1378 1254 1174 1460 1804 2372 2352 2356 2430 2358 2145 1925 1847 1962 1988 2024 1975 1837 2040 2013 1868 1579 1343 1250 1404 1454 1135 860 1157 1274 739
1 0 0 0 0 147 374 465 513 398 508 505 346 588 734 1019 689 871 1112 1154 1408 1539 1983 2161 2327 2318 2330 2338 2260 2098 1917 1845 1985 2058 2024 1911 2082 1961 1832 1920 1883 1520 1132 1154 1370 1050 1237 1208 581
100 0 0 0 0 99 185 418 331 305 332 387 539 382 744 910 744 948 1046 1245 1496 1725 1831 2021 2154 2167 2309 2239 2323 2127 2028 2086 2087 2099 2084 2083 1922 1568 1661 1768 1805 1839 1732 1098 858 1129 1485 1316 877
89 0 0 0 0 1 191 401 393 359 413 571 554 181 643 797 755 1097 1001 1177 1430 1659 1680 1701 1932 2024 2045 2075 2328 2261 2126 2148 2154 2219 2112 1896 1724 1734 1763 1615 1453 1739 1583 1323 953 471 1023 1434 1538
2 0 0 0 0 6 234 350 493 620 434 545 590 636 718 818 968 843 955 1028 1064 1307 1448 1554 1564 1735 1804 1871 2136 2223 2165 2098 2030 1982 1825 1819 1615 1595 1589 1465 1089 1328 1288 1309 1601 948 481 973 1033
28 0 0 0 0 59 169 284 542 580 361 637 701 783 906 996 997 750 1119 730 621 622 872 1260 1288 1272 1569 1681 1731 2012 1937 1890 1924 1910 1896 1799 1585 1447 1400 1533 1350 1397 1355 1256 1235 1245 950 834 571
13 0 0 4 0 24 138 152 374 411 153 522 313 653 1001 1014 1005 1072 1117 751 520 483 664 857 979 1036 1145 1047 1243 1498 1584 1405 1564 1557 1654 1844 1662 1421 1439 1216 1316 1196 1629 1232 1204 989 864 526 680
0 0 0 0 3 0 2 25 206 366 279 500 526 747 1055 1037 1039 1059 1100 868 545 480 471 621 783 804 890 1018 965 1043 648 411 382 536 686 1113 1356 896 820 930 928 945 1012 976 785 551 294 236 229
0 0 0 0 0 8 0 17 32 243 433 599 803 1010 1038 1072 1040 1081 1159 1126 906 855 754 597 789 810 799 823 1012 1153 971 367 311 314 265 385 357 455 428 481 714 638 607 672 226 259 229 128 26
0 0 0 0 0 9 36 45 64 114 514 549 736 823 999 1066 1041 1183 1340 1332 1269 1274 1233 986 1086 1073 976 1041 1071 1154 771 543 266 162 124 216 192 195 229 219 261 335 353 459 275 134 103 38 0
0 0 1 2 0 2 40 55 72 254 558 599 653 713 866 1043 1199 1205 1311 1357 1328 1350 1482 1476 1463 1460 1309 1235 1159 988 362 119 109 89 102 100 106 149 183 213 270 197 232 231 183 81 63 29 0
0 0 0 29 0 2 47 31 46 353 548 653 684 624 694 923 1081 1209 1170 1223 1348 1402 1457 1568 1691 1584 1466 1288 1103 675 634 358 185 166 80 72 52 44 142 127 165 132 80 60 23 1 0 0 0
0 0 0 1 41 16 7 33 14 380 490 586 705 639 764 835 958 1038 1087 1116 1209 1329 1403 1471 1714 1712 1493 1233 872 741 177 52 91 130 85 67 51 95 125 159 103 62 33 26 16 20 15 0 4
0 0 0 0 9 15 16 0 8 292 526 514 709 682 847 941 993 1027 1012 1048 1058 1187 1336 1456 1663 1706 1310 1139 742 278 38 38 5 33 62 35 47 173 141 93 66 10 19 21 5 14 15 18 16
0 0 0 0 0 1 0 0 13 71 508 647 734 770 873 980 1056 1093 1088 1077 1052 1104 1238 1393 1560 1593 1252 1098 661 123 24 39 19 0 15 16 3 10 107 82 51 20 14 59 48 65 58 38 37
0 0 0 0 0 0 0 0 0 10 121 508 688 748 829 916 1003 1151 1161 1168 1153 1165 1144 1330 1342 1273 1162 1039 907 686 14 26 7 0 0 41 33 12 15 28 30 25 98 134 119 84 64 42 3
0 0 0 0 0 0 0 0 0 0 6 240 528 631 731 832 920 1034 1160 1226 1262 1243 1255 1371 1323 1285 1242 1093 848 418 26 18 6 7 43 49 63 52 74 79 74 142 139 139 103 109 91 65 27
0 0 0 0 0 0 0 0 0 0 0 1 7 50 307 670 761 904 1048 1260 1328 1364 1607 765 201 79 672 927 916 627 356 12 11 122 315 574 289 224 291 230 185 106 81 66 54 64 48 9 2
0 0 0 0 0 0 0 0 0 0 0 0 0 25 125 324 538 711 889 1206 1358 1733 1180 188 1 0 4 645 819 662 382 11 40 311 560 537 316 340 228 136 53 4 0 11 31 40 6 0 0
0 0 0 0 0 0 0 0 0 0 0 0 0 10 86 398 456 600 792 1289 1578 2117 609 11 70 0 0 33 665 504 107 40 460 498 344 269 278 199 146 56 0 0 0 0 8 36 22 0 0
0 0 0 0 0 0 0 0 0 0 0 10 25 0 49 233 419 825 1148 1680 2091 2375 1469 121 76 0 1 404 637 354 17 374 565 444 183 191 169 178 79 13 0 0 0 1 0 0 0 0 0
0 0 0 0 0 0 0 0 0 0 329 356 62 11 94 253 377 661 1206 1091 925 1808 2355 1587 702 298 682 1024 827 704 605 623 482 187 101 141 189 168 70 3 0 0 0 0 3 0 1 0 0
0 0 0 0 0 0 0 0 0 20 269 530 267 263 344 419 513 673 820 39 22 507 2060 1976 897 1031 1238 919 795 659 546 489 179 58 67 75 115 115 61 5 0 0 1 4 4 3 1 0 0
0 0 0 0 0 0 0 0 0 0 108 794 501 555 808 834 774 910 487 141 76 472 1303 1882 1690 1317 967 690 561 384 122 12 37 30 27 79 90 118 34 3 0 0 0 0 0 0 0 0 0
0 0 0 0 0 0 0 0 0 0 256 907 750 766 555 116 51 101 9 54 301 468 1112 1260 1635 1303 929 682 401 78 0 1 35 24 49 72 68 41 2 0 0 0 0 0 0 0 0 0 0
0 0 0 0 0 0 0 0 0 10 203 615 882 679 555 289 52 31 53 204 146 348 1 118 1019 1181 931 632 366 0 0 0 0 3 14 8 0 0 0 0 0 0 0 0 0 0 0 0 0
CIN
-142 -131 -157 -201 -193 0 0 -106 -80 -53 -37 -116 -68 -62 -69 -92 -131 -108 -130 -91 -94 -74 -23 -5 0 0 -1 0 0 0 -2 0 -1 0 0 0 0 -2 0 0 0 0 0 0 0 0 0 0 0
-179 -213 -205 -147 -16 0 0 -88 0 -98 -164 -95 -47 -62 -62 -71 -88 -122 -104 -81 -82 -72 -23 -14 -1 -1 -1 0 0 0 -1 -1 0 0 0 0 0 0 -1 -2 0 -1 0 0 -1 0 0 0 0
-254 -213 -163 -123 0 0 0 -86 -101 -167 -124 -37 -38 -51 -57 -54 -117 -134 -116 -105 -84 -61 -36 -27 -3 0 0 0 0 -1 -4 -2 -6 -18 -2 -19 -17 -3 -2 -8 -7 -1 -3 0 0 0 0 0 0
-209 -194 -161 -2 0 0 -72 -99 -103 -79 -55 -62 -71 -81 -84 -78 -84 -117 -97 -104 -93 -63 -43 -15 -3 0 0 0 -2 -12 0 -18 -6 -6 -7 0 -2 -23 -30 -20 -5 -2 -3 0 0 0 0 0 0
-395 -345 0 0 0 -85 -82 -89 -98 -98 -108 -68 -84 -111 -91 -82 -108 -114 -117 -111 -105 -85 -57 -13 -9 -3 0 0 -1 -5 -5 -2 -1 -1 -1 -2 0 0 -2 -5 -7 -7 -3 -1 -1 0 0 0 -2
-69 0 0 0 0 -98 -102 -100 -94 -124 -127 -123 -109 -114 -94 -107 -140 -156 -140 -127 -105 -91 -47 -22 -5 -5 -2 0 0 -1 -4 -7 -3 -1 -1 0 0 0 -2 0 0 -2 -9 -8 -2 0 0 0 -11
-261 0 0 0 0 -119 -134 -152 -136 -162 -187 -166 -141 -166 -141 -134 -157 -152 -155 -123 -98 -69 -62 -34 -15 -10 -2 -3 0 0 0 0 -1 -3 -1 0 -1 -4 -5 -2 0 0 0 -8 -9 -6 0 0 -6
-257 0 0 0 0 -21 -147 -147 -190 -187 -173 -190 -172 -232 -160 -163 -200 -124 -145 -116 -86 -64 -68 -64 -30 -14 -13 -13 0 0 0 0 0 0 0 -3 -4 -3 0 -2 -4 0 0 -1 -11 -14 -6 0 0
-46 0 0 0 0 -61 -179 -129 -194 -196 -196 -194 -188 -200 -205 -214 -197 -203 -158 -163 -142 -107 -90 -74 -67 -39 -33 -20 -1 0 0 0 0 0 0 0 -5 -1 0 -6 -11 -6 -2 0 0 -7 -18 -9 -9
-175 0 0 0 0 -123 -152 -126 -157 -166 -195 -177 -206 -252 -254 -236 -201 -186 -136 -169 -187 -186 -161 -116 -97 -85 -49 -35 -18 -1 -1 -1 -1 -1 -1 -2 -3 -6 -5 -4 -9 -1 -2 -1 0 -1 -8 -6 -22
-154 0 0 -110 0 -136 -141 -164 -153 -145 -154 -174 -193 -279 -266 -238 -212 -156 -119 -138 -149 -199 -203 -190 -140 -115 -88 -88 -58 -28 -12 -18 -7 -4 -2 -3 -3 -6 -5 -12 -9 -10 0 -5 -4 -15 -20 -36 -27
0 0 0 0 -180 0 -53 -190 -124 -126 -124 -170 -262 -263 -279 -243 -238 -192 -136 -141 -178 -215 -213 -197 -192 -163 -129 -97 -89 -66 -37 -31 -23 -17 -17 -13 -7 -18 -29 -29 -32 -29 -21 -22 -27 -43 -57 -66 -78
0 0 0 0 0 -171 0 -167 -153 -126 -169 -215 -289 -289 -279 -251 -231 -214 -156 -140 -169 -168 -194 -202 -191 -177 -153 -126 -90 -57 -30 -74 -58 -36 -35 -27 -21 -27 -52 -59 -46 -59 -55 -48 -81 -78 -85 -97 -99
0 0 0 0 0 -202 -153 -196 -189 -185 -203 -248 -283 -292 -289 -269 -240 -222 -191 -137 -160 -155 -152 -172 -159 -149 -136 -98 -82 -64 -72 -57 -68 -103 -54 -38 -29 -32 -65 -62 -76 -71 -64 -57 -80 -91 -114 -146 0
0 0 -61 -168 0 -49 -214 -152 -183 -226 -229 -223 -274 -302 -279 -287 -254 -224 -201 -159 -157 -172 -149 -127 -126 -135 -108 -83 -77 -84 -116 -141 -118 -69 -45 -18 -41 -36 -49 -56 -87 -97 -78 -78 -88 -124 -130 -148 0
0 0 -15 -134 -2 -57 -212 -68 -224 -258 -206 -224 -240 -283 -289 -296 -263 -244 -230 -192 -172 -178 -153 -134 -114 -115 -93 -78 -77 -104 -97 -120 -106 -148 -7 -17 -43 -74 -50 -61 -62 -83 -114 -126 -163 -24 0 0 0
0 0 0 -20 -171 -150 -117 -88 -209 -281 -238 -233 -265 -281 -293 -266 -287 -279 -269 -229 -187 -167 -160 -143 -114 -94 -79 -92 -105 -105 -187 -243 -204 -127 -38 -37 -28 -46 -55 -49 -68 -97 -125 -140 -143 -149 -170 0 -101
0 0 0 0 -86 -138 -110 0 -205 -250 -232 -200 -279 -318 -305 -235 -194 -224 -237 -242 -219 -176 -175 -161 -130 -105 -92 -104 -126 -223 -281 -282 -78 -242 -150 -103 -54 -27 -36 -54 -77 -138 -138 -136 -82 -132 -107 -111 -104
0 0 0 0 0 -19 0 0 -173 -235 -251 -233 -292 -304 -320 -233 -191 -234 -223 -207 -217 -198 -181 -169 -132 -123 -114 -122 -122 -236 -263 -280 -306 0 -278 -224 -160 -107 -27 -49 -79 -105 -113 -75 -94 -84 -91 -89 -104
0 0 0 0 0 0 0 0 0 -179 -218 -208 -280 -329 -288 -276 -246 -224 -213 -200 -198 -158 -193 -179 -128 -142 -137 -125 -118 -137 -313 -315 -250 0 0 -204 -192 -179 -137 -90 -99 -104 -55 -47 -64 -70 -64 -79 -114
0 0 0 0 0 0 0 0 0 0 -254 -331 -370 -443 -374 -292 -234 -206 -199 -201 -174 -176 -180 -161 -128 -124 -129 -142 -139 -203 -356 -348 -340 -151 -214 -167 -155 -139 -98 -78 -71 -47 -50 -45 -52 -42 -45 -36 -81
0 0 0 0 0 0 0 0 0 0 0 -129 -399 -416 -407 -354 -311 -223 -203 -197 -173 -181 -211 -255 -287 -218 -78 -127 -132 -116 -126 -220 -268 -147 -95 -51 -77 -81 -49 -42 -37 -41 -47 -52 -50 -42 -42 -34 -9
0 0 0 0 0 0 0 0 0 0 0 0 -20 -387 -471 -413 -309 -213 -237 -245 -242 -220 -295 -293 -116 0 -330 -150 -133 -138 -145 -253 -215 -102 -53 -46 -71 -54 -64 -57 -60 -12 0 -79 -70 -50 -39 0 0
0 0 0 0 0 0 0 0 0 0 0 0 0 -419 -446 -419 -362 -348 -344 -307 -231 -129 -418 -344 -282 0 0 -300 -120 -171 -231 -222 -57 -55 -55 -62 -53 -66 -74 -115 0 0 0 0 -88 -49 -38 0 0
0 0 0 0 0 0 0 0 0 0 0 -176 -251 0 -457 -429 -435 -454 -348 -307 -187 -102 -204 -504 -211 0 -325 -310 -129 -197 -290 -117 -37 -36 -50 -62 -72 -67 -80 -131 0 0 0 -5 0 0 0 0 0
0 0 0 0 0 0 0 0 0 0 -233 -346 -359 -460 -554 -550 -563 -511 -374 -213 -235 -279 -217 -181 -250 -288 -230 -144 -125 -127 -84 -51 -48 -52 -52 -56 -66 -78 -118 -115 0 0 0 0 -4 -2 -7 0 0
0 0 0 0 0 0 0 0 0 -57 -136 -317 -399 -535 -536 -529 -576 -533 -442 -291 -61 -405 -167 -217 -174 -221 -190 -152 -179 -154 -109 -75 -118 -89 -61 -70 -78 -85 -108 -151 0 0 -5 -11 -18 -21 -14 0 0
0 0 0 0 0 0 0 0 0 0 -77 -335 -365 -429 -491 -502 -484 -422 -397 -437 -477 -365 -272 -191 -168 -166 -212 -217 -208 -216 -208 -175 -216 -164 -79 -51 -61 -66 -88 -77 0 0 0 -6 -4 0 0 0 0
0 0 0 0 0 0 0 0 0 0 -202 -269 -393 -464 -455 -491 -579 -535 -516 -616 -485 -283 -195 -269 -150 -176 -189 -209 -229 -309 0 -48 -243 -160 -121 -98 -62 -63 -31 0 0 0 0 0 0 0 0 0 0
0 0 0 0 0 0 0 0 0 -272 -362 -466 -410 -433 -473 -492 -633 -563 -676 -614 -422 -169 -52 -305 -89 -171 -185 -259 -264 0 0 0 0 -127 -126 -96 -3 0 0 0 0 0 0 0 0 0 0 0 0
Wind_Speed
24 22 17 15 28 31 33 29 24 26 23 19 20 19 20 18 17 17 22 22 23 22 19 20 20 20 20 20 20 20 18 18 18 19 20 22 23 21 18 15 10 9 9 12 11 7 10 10 5
25 22 17 21 31 34 32 27 31 23 22 26 25 21 20 19 18 23 25 23 24 22 20 20 20 20 20 20 20 20 18 18 18 19 20 22 21 22 22 17 13 18 18 15 14 11 10 11 16
25 22 21 23 28 32 32 29 31 28 26 22 23 24 21 23 23 26 22 24 24 23 21 21 21 20 19 19 19 20 19 20 20 20 20 19 19 20 19 18 18 16 23 20 18 14 12 13 4
22 20 21 29 30 29 29 28 28 28 23 25 27 26 23 19 23 22 25 25 24 22 22 21 21 20 19 18 19 18 18 19 20 20 20 19 18 17 17 16 17 18 21 20 19 14 15 13 4
19 20 27 29 29 28 27 25 24 26 25 23 23 25 25 20 22 25 26 25 24 23 22 21 21 19 19 18 17 18 16 15 17 16 17 17 17 17 17 16 17 16 17 16 17 17 14 10 5
22 18 26 28 27 27 25 23 23 24 26 26 27 26 22 22 25 26 26 24 23 23 22 20 19 18 18 16 15 16 16 15 14 14 13 14 14 14 15 16 16 18 17 10 17 18 14 12 8
21 22 24 25 25 25 22 22 23 25 26 25 25 26 21 23 24 25 24 23 22 21 21 21 20 18 17 15 15 17 16 15 15 14 12 12 12 12 12 13 13 15 17 17 5 17 16 13 6
18 20 23 22 24 23 21 22 23 23 23 24 24 23 22 22 24 24 23 21 20 21 20 19 19 18 18 17 18 17 16 14 14 13 12 12 12 14 12 9 9 9 12 19 16 10 9 6 7
17 19 21 19 20 21 21 21 21 16 23 20 19 21 22 25 24 24 22 21 20 19 19 18 18 18 18 18 18 16 14 13 12 11 12 10 9 17 11 7 7 8 8 8 18 18 12 7 8
16 18 15 15 16 18 18 18 20 19 20 16 20 23 25 24 23 22 21 20 19 18 18 18 18 18 18 16 15 14 15 10 4 4 4 4 5 5 4 10 11 8 8 9 11 18 17 14 14
14 14 12 12 11 15 15 16 17 17 16 16 20 22 23 22 20 19 18 18 19 18 17 17 17 18 17 17 15 13 12 9 6 9 8 16 13 18 4 10 23 6 7 10 9 15 14 13 14
13 11 11 10 10 11 11 15 13 15 13 15 19 21 21 20 19 18 17 17 17 17 17 17 18 18 17 16 14 12 8 6 7 18 19 9 3 8 16 8 7 14 10 6 7 10 15 17 18
10 14 8 13 8 9 9 10 10 12 12 16 18 18 18 17 18 18 16 15 15 16 16 17 17 16 16 14 13 10 8 10 3 9 19 26 30 28 26 11 7 3 5 6 7 10 11 18 21
12 12 8 9 12 6 8 8 10 11 12 13 15 16 15 16 16 16 15 15 15 15 16 16 16 15 15 13 11 9 8 7 5 5 11 7 27 28 19 16 10 8 5 6 7 11 10 14 22
15 15 14 20 10 9 7 4 7 10 13 13 15 14 14 14 14 15 16 15 15 15 15 16 15 15 14 12 10 8 7 8 7 6 5 2 10 18 6 14 14 13 14 13 13 18 19 20 22
16 16 16 18 12 9 8 5 7 9 13 14 14 12 14 15 13 14 14 15 14 14 15 14 13 13 13 11 9 8 9 10 10 10 14 0 10 15 8 13 11 16 17 17 18 17 23 20 16
17 13 16 17 7 13 6 3 8 9 12 15 16 13 12 14 12 14 13 13 13 14 13 13 13 12 12 11 10 11 10 14 16 15 13 16 6 21 20 0 13 11 15 18 19 20 21 22 23
13 15 17 14 14 13 9 7 11 8 14 17 15 15 12 12 14 13 12 11 11 11 10 10 10 11 11 12 12 12 13 15 17 19 18 17 17 14 3 7 10 15 20 23 23 21 19 14 16
18 17 18 18 20 10 3 5 14 15 19 19 18 14 11 16 13 9 7 8 9 9 9 9 9 9 9 10 10 10 11 14 16 17 18 17 13 8 3 8 13 18 22 23 12 12 15 10 11
15 16 28 31 14 7 14 10 3 25 24 22 19 15 13 13 11 7 6 7 9 8 10 8 9 12 13 10 10 11 11 11 14 15 15 16 14 12 10 10 19 17 17 22 14 8 10 11 8
17 14 17 20 19 17 22 26 16 18 14 25 25 17 12 10 11 10 7 9 7 9 10 8 7 10 12 10 10 12 12 12 12 12 13 13 13 11 9 10 16 15 13 12 15 13 9 20 14
18 10 12 21 24 24 18 29 21 12 3 10 17 19 8 12 7 10 7 6 8 7 5 16 19 22 15 10 8 8 9 7 8 11 11 11 11 10 10 12 11 15 14 14 16 16 18 16 16
17 18 20 23 19 22 19 22 24 23 23 25 6 5 10 11 9 9 4 0 2 5 6 13 17 24 15 9 7 6 8 7 8 10 10 10 11 10 10 11 13 16 17 16 14 17 15 13 14
19 18 17 18 19 21 20 19 23 21 23 29 29 11 2 3 5 6 7 6 8 5 3 2 9 12 15 8 6 7 8 7 7 8 8 10 10 11 11 14 17 17 16 16 14 14 14 14 13
16 16 18 20 19 21 20 21 22 24 27 28 32 19 4 2 2 3 3 7 8 8 5 5 4 8 10 7 7 8 8 8 6 5 6 6 7 11 12 14 16 16 16 16 15 15 16 15 15
17 14 15 21 20 21 21 24 21 22 27 26 22 17 10 7 3 2 1 3 3 6 4 8 5 8 8 7 9 10 8 8 9 5 5 5 5 10 11 13 15 14 15 16 17 16 16 16 17
16 17 17 17 20 20 22 25 28 22 22 21 18 14 10 8 6 5 3 1 11 20 9 2 2 9 9 10 12 12 11 12 12 13 13 12 9 7 11 12 14 15 15 15 15 16 16 17 17
21 14 20 20 20 22 22 24 23 19 16 17 15 11 8 7 5 4 5 4 12 20 16 13 7 10 12 13 13 15 14 15 16 18 18 16 16 10 9 12 12 13 14 14 15 15 16 17 17
16 19 19 19 19 17 17 21 17 16 15 11 9 7 6 7 6 5 8 15 16 18 12 19 7 11 12 13 14 16 16 18 20 20 20 19 16 12 10 11 13 13 14 14 15 15 15 15 15
21 22 18 15 18 18 20 27 20 18 15 11 5 3 3 6 7 6 10 14 15 18 10 30 23 14 14 14 15 16 18 18 18 19 18 17 16 15 13 12 13 14 15 15 15 13 14 14 14
Wind_Direction
124 124 132 124 73 71 64 68 82 86 97 108 118 97 93 88 89 83 123 124 107 105 100 98 99 95 94 96 95 92 82 79 77 79 86 97 103 95 79 59 23 1 13 39 37 354 17 23 320
118 120 122 96 70 61 63 74 69 94 103 87 82 91 79 82 101 106 111 116 113 108 103 102 103 98 101 104 101 98 91 85 84 88 93 98 95 107 105 81 205 181 80 57 52 35 19 39 67
116 114 96 83 70 66 65 75 73 89 100 95 84 80 91 92 104 113 125 115 115 112 110 109 110 106 105 104 104 105 102 102 102 105 108 100 87 92 75 81 78 88 130 89 81 54 42 54 340
114 104 99 72 72 72 74 82 83 84 92 89 80 71 96 115 112 129 117 116 112 112 115 118 115 114 112 108 110 108 104 110 110 118 116 110 98 89 78 65 68 86 112 98 88 61 68 58 328
124 107 72 72 73 73 82 89 95 84 85 86 91 82 94 112 111 114 117 119 120 119 120 121 120 120 117 113 109 114 101 98 106 107 109 108 104 101 98 92 98 76 82 85 80 81 69 51 8
78 121 60 57 70 74 89 106 96 89 84 86 85 85 99 108 105 114 118 115 116 122 124 121 120 120 120 113 111 117 112 108 105 105 100 103 103 98 99 104 105 120 107 42 95 96 73 68 45
81 92 64 68 71 71 100 110 96 94 88 89 93 81 105 108 112 110 115 115 120 125 124 131 128 123 124 115 120 128 123 120 121 115 106 101 103 94 88 86 86 101 118 138 46 109 98 84 34
110 107 63 73 72 73 100 102 99 99 95 96 97 83 92 116 112 108 108 108 114 124 129 131 134 136 135 130 139 136 133 128 126 121 116 112 111 120 100 43 20 39 76 144 243 301 50 0 321
93 69 66 77 73 67 104 84 109 121 95 100 107 94 101 109 110 108 109 109 116 120 132 133 141 146 141 144 146 140 136 134 128 118 126 112 99 145 103 41 30 23 21 43 177 250 282 316 307
60 53 85 90 73 66 97 87 102 99 105 109 100 83 94 107 114 116 114 119 120 123 128 132 138 146 148 140 142 142 149 131 73 36 70 23 6 35 329 117 110 60 338 330 311 253 264 279 278
48 51 106 87 78 90 90 94 102 97 102 117 104 96 103 109 118 120 120 123 128 128 129 131 133 141 145 151 143 141 145 130 118 318 320 288 294 274 39 139 201 55 62 324 326 282 288 294 292
29 65 132 95 101 107 93 115 97 109 112 112 116 109 106 113 122 125 126 124 126 128 137 137 138 144 147 147 143 140 111 58 352 275 284 305 322 143 163 137 118 175 117 49 350 320 293 283 279
19 21 81 185 141 132 88 135 118 137 91 87 108 109 114 120 128 129 131 127 125 133 142 145 142 140 145 142 138 120 96 88 132 287 287 264 234 202 209 290 308 42 353 21 352 325 321 283 274
357 10 26 185 190 110 127 100 113 126 122 104 118 126 127 130 131 131 135 136 137 138 146 146 147 144 143 144 138 129 90 79 106 151 187 197 209 232 271 280 290 295 327 337 336 324 331 313 280
337 356 360 347 46 60 47 103 118 119 118 130 138 137 138 143 133 138 143 146 147 149 142 149 147 142 142 146 142 123 89 69 60 38 331 222 173 266 286 278 284 286 291 300 306 294 297 297 290
334 341 346 345 20 33 72 107 113 102 134 149 146 144 152 151 145 148 146 155 152 150 150 146 144 142 138 137 129 117 89 71 77 107 139 291 274 268 291 281 292 280 283 286 291 301 287 302 316
327 337 332 343 34 358 30 60 27 130 149 161 166 159 156 164 152 157 153 154 152 159 151 142 145 144 138 125 112 105 93 75 77 86 108 148 150 258 185 112 284 287 289 288 293 295 299 299 303
321 322 323 330 335 334 345 210 346 145 168 179 174 175 169 167 175 165 157 145 143 156 151 128 134 136 131 106 100 96 85 80 77 76 80 97 127 267 6 301 297 288 283 278 280 295 301 316 315
307 311 312 313 322 331 263 232 206 190 194 194 193 189 183 182 171 162 150 132 141 141 144 140 121 123 111 97 97 100 89 81 75 81 81 72 88 89 32 310 297 291 284 281 312 320 316 327 326
301 303 285 282 339 347 337 223 193 217 213 204 200 199 194 189 186 165 151 143 162 146 158 142 137 152 145 112 101 76 79 74 69 68 84 87 60 80 108 306 279 292 295 280 312 336 336 334 351
297 294 299 307 322 326 321 313 204 207 204 216 213 205 202 207 197 182 165 174 159 167 161 142 135 131 140 127 85 62 62 58 50 60 65 94 85 58 41 325 295 298 313 322 312 318 334 283 312
297 300 293 300 306 306 327 302 323 353 139 195 209 211 210 201 204 190 173 163 178 170 44 352 322 292 223 148 100 81 66 85 73 37 39 52 68 52 9 340 333 302 318 318 309 310 299 306 306
304 306 302 296 303 305 313 315 300 318 322 315 222 233 197 192 192 189 194 39 164 50 51 43 346 256 196 178 118 101 68 84 50 28 24 23 18 22 14 348 335 309 306 316 321 304 314 324 317
305 304 306 307 302 298 303 312 304 318 326 309 314 327 241 333 329 319 330 346 333 358 44 79 58 186 176 170 141 97 70 90 75 45 24 359 358 348 340 322 316 317 317 317 323 319 323 328 326
305 301 297 297 301 298 305 303 305 309 312 316 293 327 16 38 49 9 354 3 5 348 318 307 345 120 159 146 121 89 73 73 99 73 38 14 9 326 328 342 332 328 314 317 326 323 320 320 319
300 299 298 295 298 304 304 299 305 311 314 315 326 339 351 1 4 339 191 163 338 28 351 303 349 80 106 105 87 76 88 66 61 84 59 21 21 327 323 332 335 335 325 314 308 315 322 322 314
293 296 303 309 309 307 306 303 301 311 317 326 331 352 4 16 25 14 354 242 312 342 335 4 212 93 90 81 70 69 78 74 58 65 85 88 73 358 320 322 323 319 323 332 327 324 322 318 315
284 298 299 301 302 302 304 307 313 320 321 331 334 355 25 45 43 67 83 86 346 347 344 323 359 61 74 77 75 70 89 69 73 82 86 79 87 55 317 310 329 341 337 337 340 333 328 321 313
287 294 301 302 301 305 307 305 327 333 334 341 350 10 42 35 49 63 22 0 353 348 335 266 117 91 89 92 87 78 87 78 75 78 88 80 82 54 352 24 338 354 360 345 343 336 336 333 320
290 294 298 299 301 306 307 299 310 316 329 339 356 31 45 39 35 42 14 18 35 43 283 210 193 117 113 96 88 83 86 83 72 73 79 88 86 84 63 9 352 356 357 351 351 355 350 339 324